This is the latest recevied weather packets stored in our database for station/object 9M4GHZ-13. If no packets are shown the sender has not sent any weather packets the latest 10 day(s).
| Time | Temp. | Humidity | Pressure | Rain* | Wind** | Luminosity | Snow |
|---|---|---|---|---|---|---|---|
| 1777282205 | 28.89° C | 84% | 1006.8 hPa | - | - | - | - |
| 1777281605 | 28.89° C | 84% | 1006.7 hPa | - | - | - | - |
| 1777281005 | 28.33° C | 84% | 1006.8 hPa | - | - | - | - |
| 1777280404 | 28.89° C | 83% | 1006.4 hPa | - | - | - | - |
| 1777279805 | 28.33° C | 84% | 1006.1 hPa | - | - | - | - |
| 1777279205 | 28.89° C | 84% | 1006 hPa | - | - | - | - |
| 1777278604 | 28.89° C | 84% | 1005.9 hPa | - | - | - | - |
| 1777278004 | 28.89° C | 83% | 1006.1 hPa | - | - | - | - |
| 1777277405 | 28.89° C | 84% | 1006.2 hPa | - | - | - | - |
| 1777276803 | 28.89° C | 84% | 1005.9 hPa | - | - | - | - |
| 1777276205 | 28.89° C | 83% | 1005.6 hPa | - | - | - | - |
| 1777275605 | 28.89° C | 82% | 1005.8 hPa | - | - | - | - |
| 1777275005 | 28.33° C | 83% | 1005.5 hPa | - | - | - | - |
| 1777274404 | 28.89° C | 83% | 1005.7 hPa | - | - | - | - |
| 1777273805 | 28.89° C | 82% | 1005.4 hPa | - | - | - | - |
| 1777273204 | 28.89° C | 82% | 1005.4 hPa | - | - | - | - |
| 1777272605 | 28.89° C | 81% | 1005.3 hPa | - | - | - | - |
| 1777272004 | 28.89° C | 81% | 1005.6 hPa | - | - | - | - |
| 1777271404 | 30° C | 80% | 1005.9 hPa | - | - | - | - |
| 1777270805 | 30.56° C | 77% | 1006.1 hPa | - | - | - | - |
| 1777270204 | 31.11° C | 75% | 1006.4 hPa | - | - | - | - |
| 1777269603 | 30.56° C | 76% | 1006.9 hPa | - | - | - | - |
| 1777269005 | 30.56° C | 77% | 1006.5 hPa | - | - | - | - |
| 1777268405 | 30.56° C | 77% | 1006.5 hPa | - | - | - | - |
| 1777267804 | 30.56° C | 76% | 1006.8 hPa | - | - | - | - |
* Rain since midnight (hover to see other rain measurements)
** Current wind speed in m/s (hover to see current wind gust speed)